Velovelo
Português Nederlands 日本語 中文
Español English čeština slovenčina
русский italiano polski norsk
français Deutsch svenska عربي
 
 الصفحة السابقة
 أرسل إلى صديقك
 طباعة التقرير
 ---> Etape du Tour 1 - 2012 : du 2001ème au 3000ème

Voir nos deux reportages-photos du Village et de la Course du dimanche

Cl...Dos.NomPrénomCat.C.cTemps..Montées
2001 1495 MALAPERT Cyril C 692 9:19:36 6:10:33
2002 5642 PLATT Tom B 522 9:19:37 6:24:57
2003 1399 BESSET Jean-Sebastien C 693 9:19:40
2004 5031 HOWES Richard D 401 9:19:40 6:36:47
2005 8303 BOURRET Claude C 694 9:19:46 6:17:18
2006 6668 HOSTETTER Frederic G 26 9:19:48 6:35:06
2007 4850 TALBOTT Gregory B 523 9:19:48 6:45:14
2008 3830 UYTDEWILLIGEN Vincent A 230 9:19:52 6:14:24
2009 250 MAGNENET Sylvie G 27 9:19:57 6:44:02
2010 2580 FERREIRA Fernando B 524 9:19:59 6:12:20
2011 5921 HODGSON Nicholas C 695 9:20:00 6:08:30
2012 3542 FEUILLARD Nicolas B 525 9:20:05 6:26:46
2013 2502 LAPORTE Patrick E 116 9:20:13 6:40:59
2014 3824 RUSKE Julien B 526 9:20:13 6:33:45
2015 3843 NOIRAUD Jean-Marie E 117 9:20:19 6:39:13
2016 6284 LYNAM Anne F 20 9:20:22 6:17:55
2017 6023 LEE Jim B 527 9:20:22 6:20:25
2018 3858 MORELLON Philippe D 402 9:20:27 6:07:57
2019 7306 HOFFMANN Nils D 403 9:20:29 6:28:53
2020 5348 MOUSSU François A 231 9:20:30 6:14:29
2021 8448 SIMON Clément A 232 9:20:31 6:14:16
2022 2292 BINET Arnaud B 528 9:20:41 6:37:17
2023 2174 FERRANDIS Jérôme C 696 9:20:45 6:15:12
2024 1122 DESCORPS Stéphane D 404 9:20:48 6:18:00
2025 3214 LEGEAY Ollivier C 697 9:21:04 6:19:16
2026 361 RIVAUD Jerome C 698 9:21:05 6:34:54
2027 2658 AUBERT Gilles C 699 9:21:06 6:32:47
2028 896 CUILLERET Bertrand C 700 9:21:07 6:49:29
2029 9710 CRONIN Kevin B 529 9:21:08 6:19:22
2030 3366 DURELLO Frederic B 530 9:21:10 6:14:12
2031 1920 ROSSAT André E 118 9:21:13 6:31:38
2032 6892 BLACHIER Remi A 233 9:21:13 6:23:50
2033 1009 BRADSHAW R Ian D 405 9:21:15
2034 5778 CHASSAGNARD Philippe D 406 9:21:18 6:30:23
2035 1895 CHANTEUR Jose C 701 9:21:22 6:30:30
2036 3426 TAGLIATI Michel C 702 9:21:31 6:32:02
2037 2660 POUYET Alain D 407 9:21:31 6:35:08
2038 2740 LABRUNÉE Gérard E 119 9:21:32 6:44:39
2039 4389 THOBOIS Etienne C 703 9:21:38 6:29:11
2040 9117 BRUSCO Anthony A 234 9:21:46 6:32:12
2041 2739 TARDIEU Robert C 704 9:21:46 6:36:24
2042 3754 REGRIGNY Gerard E 120 9:21:46 6:30:47
2043 1887 TARDIEU Jacques D 408 9:21:46 6:36:25
2044 1683 ASSELIN David D 409 9:21:47 6:51:16
2045 2108 GUESDON Anthony C 705 9:22:03 6:43:40
2046 2926 DUVAL Pierre D 410 9:22:08 6:35:44
2047 7920 HARTLEY Mark C 706 9:22:12 6:20:00
2048 7328 GUILMOIS Laurent B 531 9:22:23 6:12:17
2049 2848 SHAH Robin B 532 9:22:26 6:35:32
2050 8989 PINEL Antoine B 533 9:22:28 6:45:56
2051 1029 HANCOCK Stephen C 707 9:22:29 6:32:42
2052 2789 MURCHIE Stuart D 411 9:22:34 6:27:19
2053 2549 BOYLE Eugene D 412 9:22:35 6:40:20
2054 1384 DECOUTEIX Michel C 708 9:22:42 6:32:16
2055 6388 WOODLAND Alastair A 235 9:22:50 6:26:13
2056 9471 JANSSENS Pascal D 413 9:23:00 6:43:27
2057 2171 MCBRIDE Denis C 709 9:23:00 6:15:51
2058 2030 METTETAL Dominique D 414 9:23:05 6:27:25
2059 2550 DEANER Andrew C 710 9:23:08 6:22:02
2060 8904 CHADDERTON Mark B 534 9:23:18 6:24:04
2061 5691 KIENTZY Philippe D 415 9:23:20 6:30:37
2062 4559 JONES Andrew C 711 9:23:25 6:16:25
2063 2753 TWEEDY Tim C 712 9:23:29 6:27:21
2064 1118 DEPUS Laurent C 713 9:23:33 6:30:51
2065 3272 TOMLINSON Andrew C 714 9:23:33 6:34:27
2066 5858 CARTIER Brice E 121 9:23:34 6:53:40
2067 5401 FAURE Philippe D 416 9:23:35 6:48:14
2068 5811 SENDELL Greg C 715 9:23:36 6:28:19
2069 4116 PIAT Maxime A 236 9:23:39 6:18:15
2070 335 BAUBY Francois D 417 9:23:42 6:40:34
2071 1262 ESCALIER Yves D 418 9:23:45 6:42:42
2072 7238 VETS Bart C 716 9:23:46 6:28:07
2073 2189 STEELE Simon C 717 9:23:47 6:26:35
2074 2314 ROOKE Ian C 718 9:23:48 6:24:52
2075 4649 JOUGLARD Denis D 419 9:23:48 6:18:25
2076 2871 MANCASSOLA Gilles D 420 9:23:50 6:39:45
2077 2079 NICOLI Serge D 421 9:23:50 6:40:01
2078 7950 JEHU Irwyn E 122 9:24:03 6:15:11
2079 3215 NECTOUX Gérard D 422 9:24:07 6:37:15
2080 3956 PANCRACE Roland E 123 9:24:10 6:28:00
2081 3556 BOUTEVILLE Franck B 535 9:24:13 6:23:21
2082 2852 FAURE Pascale G 28 9:24:16 6:26:56
2083 5756 FRAISSE Jean-Claude D 423 9:24:16 6:32:10
2084 1055 MOUILLON Bruno D 424 9:24:18
2085 7679 LLOYD Duncan C 719 9:24:23 6:22:30
2086 8886 KERAMPRAN Stéphane C 720 9:24:25 5:37:36
2087 8477 ROBINSON Philip C 721 9:24:39 6:41:53
2088 700 COMTE Christian C 722 9:24:45 6:23:00
2089 6605 BODDY Tim A 237 9:24:46 6:11:58
2090 2124 FRAYNE Nigel E 124 9:24:49 6:51:23
2091 4060 GATINE PASCAL Pascal D 425 9:24:51 6:36:59
2092 1906 GOGO Prospero C 723 9:24:51 6:19:42
2093 2083 WATIER Eric C 724 9:24:53 6:38:40
2094 8293 WILLIAMS David B 536 9:24:57 5:54:36
2095 5256 BULL Gary C 725 9:24:58 5:55:43
2096 2531 DOVEY Toby A 238 9:25:11 6:21:03
2097 2118 COPIN Yves D 426 9:25:24 6:51:09
2098 6638 REBILLOT Nicolas B 537 9:25:26 6:06:48
2099 5957 KEIGHER James A 239 9:25:28 6:16:53
2100 2521 ALIAGA Jean-Marie D 427 9:25:28 6:34:06
2101 2556 ANDREUX Yvon E 125 9:25:37 6:37:36
2102 2928 TOULOUSE Sébastien B 538 9:25:38 6:53:43
2103 2577 CALZETTA Maurice D 428 9:25:41 6:52:10
2104 7323 HASS Detlef C 726 9:25:43 6:42:15
2105 4424 HAMEAU Joel C 727 9:25:44 6:20:54
2106 5824 ANDERTON Stuart C 728 9:25:46 6:17:39
2107 7319 WOOD Peter B 539 9:25:47 6:20:53
2108 1499 LABORIE Richard C 729 9:25:48 6:23:47
2109 1498 TASSOU Benoit C 730 9:25:48 6:35:40
2110 4112 ROUX-VOLLON Christine G 29 9:25:51
2111 6287 PATTERSON Scott C 731 9:25:53 6:21:31
2112 3524 DION Jerome B 540 9:25:54 5:49:06
2113 3238 WILSON Dave D 429 9:25:58 6:39:25
2114 2329 LOUVET Thomas B 541 9:26:00 6:32:29
2115 6568 JENKINS Jason C 732 9:26:13 6:36:23
2116 3332 HANCOCK Marcus B 542 9:26:18 6:01:30
2117 1636 JAMIN Frank C 733 9:26:22 6:34:08
2118 3563 FABER Camille E 126 9:26:28 6:25:48
2119 9747 KNUCKEY Kym C 734 9:26:28 6:30:50
2120 5933 ATTREED Kevin A 240 9:26:34 6:46:27
2121 2042 PENIN Gilles D 430 9:26:37 6:55:01
2122 8369 SNOOK Paul B 543 9:26:40 6:00:46
2123 4603 LUCAS Serge C 735 9:26:40 6:09:34
2124 2519 LORIGEON Benoit C 736 9:26:42 6:50:23
2125 7110 NIRGI Ahto B 544 9:26:43 6:39:40
2126 2299 BOISSET Vincent B 545 9:26:45 6:29:37
2127 2511 ROUSSILLE Dominique D 431 9:26:51 6:44:55
2128 7175 DUTARTRE Yves C 737 9:27:00 6:26:51
2129 8556 SAUBOI Bernard D 432 9:27:06
2130 7810 DEAS Gordon B 546 9:27:08 6:36:40
2131 2968 BATAILLEUR Jacques E 127 9:27:11 6:32:59
2132 4132 LACOSTE Jean Luc D 433 9:27:11 6:30:33
2133 6357 MALARD Thibaut A 241 9:27:24 6:25:14
2134 7256 PAYNE Andrew C 738 9:27:24 6:29:25
2135 2680 ANDRE William C 739 9:27:27 6:33:38
2136 455 ROBERTS Nigel C 740 9:27:33 6:14:45
2137 8782 SANCHEZ Jean Paul C 741 9:27:36 6:29:03
2138 8339 DANCEY Mason C 742 9:27:36 6:35:07
2139 2229 COVE José C 743 9:27:37 6:32:40
2140 8606 QASMI Hicham B 547 9:27:37 6:25:10
2141 5437 ABEILLE Romain A 242 9:27:45 5:10:08
2142 9836 FERNANDEZ Gabriel A 243 9:27:47 5:10:06
2143 3530 FRADIN Cedric C 744 9:27:51 6:30:42
2144 2015 GAROFALO Alessandro C 745 9:27:52 6:29:56
2145 1880 JEULAND Eric C 746 9:27:57 6:48:13
2146 6409 CLOSSON Michel D 434 9:28:03 6:30:26
2147 6253 GROSPERRIN Philippe D 435 9:28:07 6:53:47
2148 3777 ROY Alexandre A 244 9:28:08 6:27:23
2149 3776 ROY Julien B 548 9:28:10 6:24:30
2150 8918 BOCHET Rémi A 245 9:28:22 6:16:29
2151 8917 PEIGNEN Cédric B 549 9:28:22 6:17:26
2152 165 LADAVIERE Philippe C 747 9:28:23 6:55:06
2153 7743 DAL CORSO Roberto C 748 9:28:25 6:37:51
2154 7158 GUILLET Matthias B 550 9:28:25 6:21:45
2155 8214 REMONNAY Maxime B 551 9:28:25 6:24:39
2156 5268 RICHARD Benoît A 246 9:28:26 6:24:12
2157 8415 KANGELOS George B 552 9:28:27 6:13:18
2158 9167 TAYLOR Stewart B 553 9:28:31 6:17:31
2159 9142 DE FRAISSINETTE Bruno C 749 9:28:37 6:35:12
2160 2744 HALMINEN Hannu E 128 9:28:38 6:30:42
2161 2082 MCGRATH Patrick C 750 9:29:02 6:32:15
2162 3500 BARRETO Francis D 436 9:29:07 6:45:23
2163 2246 YAMASAKI Shinichi D 437 9:29:09 6:17:18
2164 3164 SUBIGER Renaud A 247 9:29:10 6:29:38
2165 3528 MATRAT Alain D 438 9:29:10 6:45:07
2166 2925 VALENTIN Michel E 129 9:29:11 6:40:29
2167 5128 DAVIES Ben B 554 9:29:13 5:44:39
2168 6022 SULLIVAN Sam A 248 9:29:15 6:33:21
2169 2820 BUCKROYD Nick B 555 9:29:16 7:03:27
2170 5124 ARSAC Eric C 751 9:29:22 6:34:59
2171 8469 LOUIS Pascal D 439 9:29:26
2172 7302 MCDONAGH Carl D 440 9:29:31 6:52:21
2173 3473 AUDENOT Michel E 130 9:29:34 6:41:39
2174 988 BARBIER Coraline F 21 9:29:36 6:36:12
2175 8769 TONGE Matthew B 556 9:29:45 6:17:19
2176 3512 POLLET Robin A 249 9:29:53 6:35:10
2177 5063 AULD Ben B 557 9:29:55 6:04:26
2178 8929 BELL Philip C 752 9:29:57 6:23:33
2179 420 GADIOU Pierre D 441 9:29:58 6:45:24
2180 5006 WILLCOXSON Paul B 558 9:29:58 6:41:02
2181 6444 GORMAN James B 559 9:29:58 6:25:51
2182 3589 MEYNIEL Rene Nenes E 131 9:30:06 6:51:56
2183 94 BRETIN Simon E 132 9:30:12 6:59:58
2184 5888 FOSTER Stephen C 753 9:30:14 6:22:20
2185 1437 NICOLET Alexandre C 754 9:30:25 6:58:14
2186 7189 KOHLHUBER Bruno C 755 9:30:32 6:38:19
2187 1079 PAQUET Michel C 756 9:30:40 6:47:32
2188 9626 GRINBAUM Raphael D 442 9:30:40 6:45:24
2189 5792 BERTON Fabrice B 560 9:30:41 6:19:33
2190 4094 GAY Paul D 443 9:30:45 6:40:53
2191 8933 LEAK Bert D 444 9:30:46 6:25:02
2192 976 SAINT LEGER Thierry D 445 9:30:49 6:55:07
2193 1420 BERSON Jacques D 446 9:30:52 6:48:13
2194 7134 SNOW Richard C 757 9:30:54 6:44:19
2195 5322 ROBERTS Ian B 561 9:30:58 6:34:50
2196 3395 ARGENTA Patrick D 447 9:30:59 6:54:10
2197 5005 HUNT Dean A 250 9:30:59 6:22:03
2198 9132 ROBINSON Jonathan C 758 9:31:05 6:29:44
2199 7969 CHOULET Gerald B 562 9:31:08 6:34:41
2200 4203 FLAGE John Helge C 759 9:31:11 6:31:52
2201 5180 TESS Daniel C 760 9:31:12 6:08:19
2202 69 JOB Jean-François D 448 9:31:15 7:01:32
2203 3815 GERBAUD Thoams B 563 9:31:18 5:46:54
2204 9485 JAKOBSEN Simon Kjaer B 564 9:31:19 6:33:44
2205 4533 TEULINGS Dennis B 565 9:31:19 6:34:34
2206 4164 HUYGHE Michaël B 566 9:31:23 6:43:08
2207 7942 PEARSON David C 761 9:31:26 5:39:59
2208 2630 DOUTTÉ Jean Baptiste A 251 9:31:28 6:43:30
2209 5272 PRZYBYLSKI Rachel F 22 9:31:31 6:38:56
2210 5373 FITZSIMONS Julian C 762 9:31:35 6:07:04
2211 3468 DUBARRY Thomas B 567 9:31:38 6:27:11
2212 8983 STRANGE Vicky G 30 9:31:42 6:45:53
2213 3467 CHATONNIER Loic B 568 9:31:43 6:27:26
2214 4526 DE FOS Bjorn B 569 9:31:45 6:35:18
2215 2888 HILAIRE Bruno D 449 9:31:46 6:48:16
2216 2133 BUYENS Alexandre A 252 9:31:51 6:37:42
2217 5435 DOLFO Francesco B 570 9:31:52 6:03:00
2218 5814 BOWMAN Neil C 763 9:31:55 6:31:50
2219 6005 BRODIN Christian D 450 9:31:55 6:57:02
2220 9424 COFFRE Jean-Yves C 764 9:31:58 6:49:09
2221 4735 NEWELL Simon C 765 9:32:00 6:08:47
2222 2226 MOTTET Patrick E 133 9:32:02 6:54:00
2223 5270 SCHUTZ Thierry E 134 9:32:03 6:34:58
2224 3178 ROGER Emmanuel C 766 9:32:05 6:25:51
2225 2791 COCHETEAU Eric C 767 9:32:17 6:32:46
2226 6356 MARK Dickinson C 768 9:32:30 6:39:29
2227 2145 RAVE Alain C 769 9:32:31 6:58:38
2228 7581 MULLER Christian C 770 9:32:36 6:32:43
2229 5963 WEST Alexandra F 23 9:32:41 6:40:28
2230 7209 PICKERING Adair C 771 9:32:49 6:21:02
2231 7926 STEYN Conrad C 772 9:32:50 6:12:24
2232 7928 BRICK Shaun C 773 9:32:50 6:06:38
2233 185 JACQUOT Roger E 135 9:32:54 6:49:09
2234 1875 SUCAUD Jean Claude D 451 9:33:00 6:35:43
2235 8387 ANDERLOHR Jörg B 571 9:33:01 6:30:55
2236 9638 MARMON Tangmar B 572 9:33:10 6:21:09
2237 2825 ROSSITER Martin C 774 9:33:14 6:15:15
2238 5269 OWENS Chris D 452 9:33:15 6:41:19
2239 3268 SIGNORE Pascal D 453 9:33:16 6:49:12
2240 687 MATIAS Antoine D 454 9:33:18 6:47:55
2241 3839 DELARBRE Patricia G 31 9:33:20 7:03:11
2242 8289 OWEN Ben B 573 9:33:22 6:34:20
2243 7974 HOWES Mark D 455 9:33:22 6:25:24
2244 9769 HILLMAN Josh A 253 9:33:33 6:42:22
2245 5959 VAN DINGENEN Peter C 775 9:33:33 6:32:26
2246 2949 BLANC Patrick D 456 9:33:34 6:31:51
2247 2020 JUILLARD Eric D 457 9:33:38 6:47:33
2248 1892 BRAUD Jean Claude E 136 9:33:41 6:54:17
2249 3134 BROSSE Denis D 458 9:33:44 6:48:43
2250 2616 LOBBE Thierry C 776 9:33:45 5:57:46
2251 5803 LE DRÉAN Thierry C 777 9:33:45 6:26:50
2252 8905 IAN Monaghan B 574 9:33:50 6:33:10
2253 956 GENTRY Tim C 778 9:33:51 6:38:23
2254 4052 RODD Helen G 32 9:33:54 6:26:34
2255 9095 RIMBERT Dimitri C 779 9:33:58 6:17:06
2256 2882 GUEDON Patrick D 459 9:33:59 6:50:49
2257 4855 RAINIERI Caroline F 24 9:34:00 6:36:18
2258 2029 DESNOIX Alain E 137 9:34:00 6:27:21
2259 3151 PETER Michel C 780 9:34:01 6:39:08
2260 2775 LAPINSKI Zbigniew B 575 9:34:03 6:33:50
2261 1434 CAMPBELL Baden B 576 9:34:05 6:17:15
2262 2832 DOUVINET Paul D 460 9:34:08 6:54:14
2263 8449 DUFAUT Benjamin A 254 9:34:11 6:34:02
2264 3866 LAROZE Gilles C 781 9:34:11 6:27:33
2265 7905 HUSSEY David C 782 9:34:15 6:29:44
2266 5734 LIVERSEDGE Timothy B 577 9:34:19 6:34:40
2267 4594 BREWER Graham B 578 9:34:20 6:21:35
2268 9032 ABBUD Ulisses A 255 9:34:20 6:33:46
2269 3270 JOLY Nicolas B 579 9:34:20 6:43:44
2270 7263 CAILLAUD Jerome B 580 9:34:22 6:40:27
2271 3144 SCHUT Fedor B 581 9:34:37 6:25:44
2272 2113 MAINEULT Bruno C 783 9:34:42 6:48:54
2273 3140 OBSER Dominique D 461 9:34:46 6:38:26
2274 2730 LOGE Sylvain B 582 9:34:53 6:30:38
2275 5842 CHISHOLM David C 784 9:34:55 6:45:05
2276 4407 HUGRET Jean Paul D 462 9:35:04 6:48:49
2277 9139 FOERSTER Sandra G 33 9:35:08 6:31:31
2278 9395 GLYNN Francis D 463 9:35:09 6:39:08
2279 9814 DA COSTA FERREIRA Jose D 464 9:35:12 6:12:05
2280 7341 ARKWRIGHT Thomas A 256 9:35:21 6:43:59
2281 7271 LEIBA Bernard D 465 9:35:21 6:40:42
2282 8513 BOUROULT Jean Claude E 138 9:35:24
2283 1662 GRENGUET Jean Marc D 466 9:35:27 6:47:50
2284 8566 CUNCHON Yves E 139 9:35:35 6:50:50
2285 9791 LEMA Flor B 583 9:35:37 5:59:53
2286 6648 PEYRON Maxime A 257 9:35:38 6:49:32
2287 2666 DAVID Robinson B 584 9:35:39 6:20:14
2288 465 LEE Ho Fai B 585 9:35:41 6:42:15
2289 8806 BLAIN Adrien A 258 9:35:46 6:02:55
2290 8805 BLAIN Léonard A 259 9:35:47 6:02:46
2291 7262 BOUTOUIL Jean-Claude E 140 9:35:47 6:59:38
2292 1047 AUDRY Jean Marc D 467 9:35:49 7:07:34
2293 2065 MONNIER Serge C 785 9:35:49
2294 7062 GESNOUIN Ludovic B 586 9:35:49 7:07:01
2295 2713 AILLAUD Bernard D 468 9:35:49 6:47:30
2296 8800 ROUX Max-Olivier C 786 9:35:49 6:43:27
2297 8801 ROUX Claude C 787 9:35:49 6:43:26
2298 5795 EDMUNDS David C 788 9:36:00 6:42:27
2299 1474 PIERRISNARD Stéphane B 587 9:36:05 6:14:04
2300 8574 LEYNAUD Baptiste B 588 9:36:08 6:29:16
2301 8475 JACKSON Angus B 589 9:36:10 6:45:20
2302 5655 MILLET Frederic C 789 9:36:12 6:23:20
2303 8169 TACHET Philippe D 469 9:36:15 5:56:40
2304 7030 DARSCH Andre D 470 9:36:25 6:50:11
2305 716 SALOMONS Michel C 790 9:36:26 6:57:30
2306 1441 DE MAREZ Denis B 590 9:36:26 6:31:42
2307 9834 VIAL Pierre-Emmanuel B 591 9:36:29 6:20:13
2308 5148 REBOURS Vincent C 791 9:36:30 6:31:33
2309 2672 LEMIRE Daniel E 141 9:36:31 6:55:54
2310 2564 MARTIN Bernard D 471 9:36:36 6:38:31
2311 5915 DOWGIERD Philip B 592 9:36:39 6:58:33
2312 9721 MOREAU Jocelyn B 593 9:36:41 6:42:04
2313 9181 NIWA Hiroyuki C 792 9:36:42 6:25:01
2314 4384 WOLSEY Ian C 793 9:36:47 6:25:58
2315 4430 BELANGER Pierre B 594 9:36:48 6:33:36
2316 8164 CAILLET Bruno B 595 9:36:58 6:40:44
2317 3592 ROLLET Philippe C 794 9:36:58 6:40:32
2318 1553 DUPUPET Jean-Luc D 472 9:37:07 6:40:53
2319 3433 HALL David B 596 9:37:07 6:54:39
2320 3907 BASSET Jean-Christophe B 597 9:37:10 6:26:24
2321 4411 CERISIER Didier C 795 9:37:12 6:50:56
2322 1418 LHERITIER Régis D 473 9:37:15 6:54:04
2323 8166 TEZIER Frederic C 796 9:37:20 6:47:06
2324 3466 CONGY Philippe D 474 9:37:30 6:46:29
2325 4618 GANTOIS Michael C 797 9:37:31 6:25:39
2326 3893 LAGO Sebastien C 798 9:37:32 6:20:03
2327 8785 REDFERN Stuart D 475 9:37:36 6:13:53
2328 8368 ARMSTRONG Simon C 799 9:37:37 6:45:26
2329 6590 AURIOLLE Xavier A 260 9:37:44 6:15:09
2330 5877 HENG Brandon B 598 9:37:45 6:11:56
2331 9515 HALSTEAD Michael A 261 9:37:51 6:28:48
2332 1387 BARNADE Daniel D 476 9:37:55 7:08:04
2333 1957 IMARD Eddy C 800 9:37:58 6:51:42
2334 2649 VAN WEYMEERSCH Jeremy B 599 9:38:00 6:42:15
2335 3191 PERES Ana Flavia F 25 9:38:02 6:44:16
2336 3852 TOUSSAINT Thierry D 477 9:38:14 6:39:18
2337 5149 ARNOULD Jean-Marie C 801 9:38:18 6:45:13
2338 6337 GRIFFITHS Jackie F 26 9:38:18 6:44:31
2339 6061 MINOZZI Eric C 802 9:38:21 6:45:00
2340 3579 DUCHOSSOY Luc C 803 9:38:22 6:52:50
2341 3862 THOME Daniel D 478 9:38:23 6:41:57
2342 3451 ROBINS Philip B 600 9:38:24 6:51:31
2343 3975 SMITH Ronnie C 804 9:38:26 6:32:41
2344 2610 CHAMBERS John C 805 9:38:37 6:47:43
2345 1573 AGARD Steve C 806 9:38:43 6:51:15
2346 4706 LEVESQUE Bernard D 479 9:38:45 6:37:38
2347 2319 ROBERT Berger B 601 9:38:55 6:56:47
2348 6562 PASTORE Charles C 807 9:38:57 6:34:48
2349 77 SCHAEFER Nicholas C 808 9:39:03 6:45:14
2350 8535 GIMEL Marcel E 142 9:39:06 6:55:48
2351 3584 GRARE Stéphane C 809 9:39:07 6:34:19
2352 5181 GUIGNARD Dominique D 480 9:39:08 6:47:10
2353 7550 VAMBAIRGUE Jean Luc D 481 9:39:08 6:59:10
2354 6682 BAUMBER Kevin B 602 9:39:10 6:36:49
2355 8244 STOREY Stuart B 603 9:39:10 6:05:55
2356 9477 BAUD Natacha F 27 9:39:10 6:30:09
2357 4480 DALZELL Mike D 482 9:39:13 6:31:09
2358 5439 GOUYETTE Benjamin A 262 9:39:27 5:35:37
2359 2080 BOUCHER Brice C 810 9:39:32 6:58:29
2360 1582 LAVIGNE Robert D 483 9:39:32 7:02:34
2361 3807 VANDERSNICKT Claudio A 263 9:39:37 6:29:01
2362 1337 DUROUX Jacky E 143 9:39:42 6:50:34
2363 3819 CANNING Brendan B 604 9:39:45 6:31:23
2364 4580 PREVOT Yves D 484 9:39:48 7:08:48
2365 2119 WAGUET Sylvain E 144 9:39:50 6:55:41
2366 9577 ALEXANDER Jason B 605 9:39:52 6:32:22
2367 2844 MARAIO Antonio D 485 9:39:56 6:55:37
2368 2532 EVANS Paul C 811 9:39:59 6:30:57
2369 5672 DUPONT Johan B 606 9:40:07 6:45:12
2370 2742 PORTMANN Emmanuel C 812 9:40:07 7:00:15
2371 6947 RINGER Mike D 486 9:40:08 6:47:52
2372 7915 ROBINSON Stephen D 487 9:40:16 6:23:57
2373 1975 CAVANIER Andre E 145 9:40:19 6:57:04
2374 9813 MILAN Jean D 488 9:40:19 7:08:28
2375 3970 POTTIER Arsène E 146 9:40:22 7:00:07
2376 5638 VITELLO Mariano C 813 9:40:23 6:24:45
2377 7611 JAKE Stephenson A 264 9:40:24 6:12:47
2378 7697 STUTE Steven B 607 9:40:24 5:20:20
2379 5036 FERVENTIN Stéphane C 814 9:40:25 6:13:49
2380 5055 NORGATE Craig C 815 9:40:35 6:51:17
2381 6071 LECLERCQ Aline F 28 9:40:40 6:30:51
2382 8861 SMITH Ian C 816 9:40:41 6:36:29
2383 924 DOS SANTOS PEREIRA Luciano D 489 9:40:41 6:51:13
2384 9472 CARRILLO FLORES Juan Carlos B 608 9:40:42 6:29:07
2385 8860 HOPKINS Simon C 817 9:40:42 6:36:22
2386 2728 HOLMES A COURT Peter C 818 9:40:46 6:52:41
2387 5669 BUNEA Radu B 609 9:40:47 6:51:24
2388 5987 MARK Crook B 610 9:40:52 6:44:45
2389 2517 JASOR Ernest C 819 9:40:55 6:52:49
2390 2551 ROYOT Eric D 490 9:40:57 6:17:13
2391 5193 SULLIVAN Nicholas C 820 9:40:58
2392 4006 SIRVEAUX Marie Aude G 34 9:41:01 6:28:36
2393 8875 BARTHIER Christian D 491 9:41:19 6:48:17
2394 825 POLAK Pascal C 821 9:41:19 6:41:04
2395 4701 BOURQUIN Jean-François D 492 9:41:23 6:51:20
2396 8222 ROOS Philippe C 822 9:41:24 6:47:45
2397 7224 REESON Dale B 611 9:41:26 6:25:09
2398 962 COSTA Wagner B 612 9:41:31 6:48:24
2399 9713 PYLE Mark A 265 9:41:32 6:42:23
2400 3299 CHARTIER Eric C 823 9:41:41 6:36:23
2401 7208 BEVAN Lloyd C 824 9:41:45 6:32:32
2402 3206 KENNEDY Steven C 825 9:41:50 6:46:43
2403 4453 OWENS Sean B 613 9:41:55 6:35:17
2404 8778 POULET Jacques D 493 9:41:59 6:54:30
2405 4378 GREEN Jason B 614 9:42:03 6:43:18
2406 4844 O’SULLIVAN Rory B 615 9:42:03 6:54:30
2407 2275 FLETCHER Marc B 616 9:42:08 6:56:32
2408 5190 USANNAZ Jean-Noël C 826 9:42:09 6:30:29
2409 5357 HAMON Pascal C 827 9:42:13 6:47:47
2410 1941 JOYCE Peter C 828 9:42:14 6:50:19
2411 2558 DARCEL Serge D 494 9:42:15
2412 5742 MENNECIER Bruno C 829 9:42:19 6:53:03
2413 5718 RAVIER Eric D 495 9:42:19 7:05:48
2414 961 CHASE Douglas Garland E 147 9:42:20 6:46:23
2415 4548 RICARD Jean Michel B 617 9:42:20 6:32:08
2416 1073 GAILLARD Gilbert D 496 9:42:25
2417 2637 SUAREZ Bruno C 830 9:42:29 7:03:08
2418 3889 GRANDGEORGE Thierry C 831 9:42:32 6:56:29
2419 5247 JACKSON Steven C 832 9:42:36 6:31:55
2420 2755 GOODWIN Tom C 833 9:42:40 6:42:58
2421 6354 REDDING Steven C 834 9:42:45 6:51:48
2422 2799 CASEY Leo C 835 9:42:46 6:26:43
2423 1386 MANGEARD Philippe D 497 9:42:48 6:37:31
2424 3753 DAVISON Mark D 498 9:42:56 6:32:36
2425 8181 GAY Alexandre B 618 9:42:58 6:53:26
2426 90 GIERHART Roger C 836 9:43:05 6:10:52
2427 3767 CAMPBELL Stephen C 837 9:43:06 7:10:49
2428 3763 ANNETT Nigel D 499 9:43:13 6:53:45
2429 9074 DALEY Nicholas B 619 9:43:18 6:41:38
2430 7333 NOEL Christian E 148 9:43:18 6:36:28
2431 3844 CASTAN Xavier C 838 9:43:19 6:54:07
2432 2305 LEBLAN Eric C 839 9:43:21 7:00:54
2433 9049 PONTE Benjamin A 266 9:43:21 6:44:05
2434 9203 PLUMTREE Ian C 840 9:43:21 6:51:05
2435 5225 BARROCHE Roger E 149 9:43:22 6:28:45
2436 3822 BOMPARD Christian E 150 9:43:22 6:49:13
2437 8352 CALVET Otavio C 841 9:43:23 6:15:09
2438 3342 GONCALVES Carlos C 842 9:43:25 6:49:34
2439 1655 WATSON Nick A 267 9:43:25 6:24:47
2440 2150 BLEIZE Frank C 843 9:43:25 7:00:24
2441 466 LANGLOIS Matthieu C 844 9:43:27 6:11:01
2442 2901 HAESLER Patrick B 620 9:43:28 6:57:09
2443 8129 BROOKE Matthew B 621 9:43:28 6:51:40
2444 9511 READER Martin C 845 9:43:31 7:05:12
2445 9174 PRIOU Florent C 846 9:43:32 6:37:01
2446 9393 CHENEVAL Ludovic C 847 9:43:32 6:39:06
2447 9394 CHENEVAL Christine G 35 9:43:33 6:33:41
2448 1401 LAUNAY Patrick D 500 9:43:38
2449 1708 BERNARD Stéphane B 622 9:43:39 6:19:44
2450 1571 MONFERRINI Marc C 848 9:43:40 6:49:53
2451 7813 AITKEN Niall B 623 9:43:43 6:58:13
2452 1939 IRVING Joel D 501 9:43:52 6:48:44
2453 5977 GATTI Franck C 849 9:44:07 6:44:15
2454 9402 GINDRE Amaury B 624 9:44:14 6:54:00
2455 1709 CHALLIER Vincent A 268 9:44:22 6:21:09
2456 5701 NUNES Jose B 625 9:44:26 6:27:25
2457 6509 KUGENER Fernand D 502 9:44:26 6:35:31
2458 1286 MACDONALD Duncan B 626 9:44:32 6:29:53
2459 4403 TRILL Jeremy C 850 9:44:34 6:34:27
2460 8966 SPROSON Ben B 627 9:44:36 6:37:02
2461 3587 GRELIER Patrick D 503 9:44:36 6:54:00
2462 4122 CLIPPER Stuart B 628 9:44:41 6:31:25
2463 969 DUCHAMP Alain D 504 9:44:42 7:12:11
2464 6636 LAMAZOU Arnaud B 629 9:44:44 6:54:18
2465 7185 O’FLAHERTY Owen B 630 9:44:45
2466 1999 LATORRE Xavier E 151 9:44:48 6:52:48
2467 1931 COURCOT Philippe E 152 9:44:51 6:43:45
2468 2866 WENGLER Guy E 153 9:44:52 6:52:55
2469 9408 RUSSELL Amelia F 29 9:44:52 6:51:46
2470 1375 REBINDAINE Daniel E 154 9:44:54 6:43:21
2471 2006 REBINDAINE Yann B 631 9:44:54 6:43:22
2472 2104 HAINES Pete D 505 9:45:05 6:49:50
2473 5440 LEVANNIER Fabrice B 632 9:45:07 5:42:51
2474 204 PROST Gilles D 506 9:45:08 7:03:49
2475 3482 DE TOURNEMIRE Paul B 633 9:45:08 6:48:26
2476 7681 OKEEFFE Adam C 851 9:45:09 6:56:16
2477 6490 COOPER Kevin A 269 9:45:09 6:56:34
2478 4625 RYCHKOV Valentin B 634 9:45:12 6:43:17
2479 8382 BOND Matthew A 270 9:45:16 6:38:13
2480 5349 MOUSSU Joel D 507 9:45:18 6:52:57
2481 3859 NOURRY Francis D 508 9:45:24 7:05:57
2482 9064 SQUIRES Gavin D 509 9:45:31 6:31:35
2483 8215 EGLON Richard D 510 9:45:33 6:33:33
2484 2304 CLUZEAU Jean-Pierre D 511 9:45:37 6:53:02
2485 1984 COLLIN Philippe B 635 9:45:39 6:41:35
2486 2768 LALANNE Bernard E 155 9:45:46 7:00:11
2487 5697 HAYTON Dave D 512 9:45:51 6:50:27
2488 6447 PEEL Francis B 636 9:45:55 6:15:36
2489 9194 GIRAULT Jb C 852 9:45:56 7:05:45
2490 7937 GOUDARD Christophe C 853 9:45:56 6:37:21
2491 2758 HAMON Roland B 637 9:45:59 6:47:28
2492 6974 WOOD Gary A 271 9:45:59 6:26:18
2493 7258 BRON Jean-Paul C 854 9:46:02 6:26:57
2494 7227 LIEGEON Ludovic B 638 9:46:02 6:31:53
2495 7046 WESTERDALE Robert B 639 9:46:03 6:23:57
2496 1965 RABY Pascal B 640 9:46:05 6:58:41
2497 9066 FRANKTON Robert B 641 9:46:06 6:33:32
2498 4522 RICHARDT Edwige G 36 9:46:09 6:58:31
2499 9810 COWE Stephen C 855 9:46:10 6:37:40
2500 5395 UMBERTO De Sanctis B 642 9:46:10 6:48:49
2501 5414 SOSNIAK Nicolas B 643 9:46:16 6:52:47
2502 7035 SIMI Marco Antonio C 856 9:46:31 6:25:47
2503 2887 HENRY Jean-Paul E 156 9:46:43 6:36:14
2504 8256 FROYSOK Magnus B 644 9:46:43 6:34:49
2505 2543 GAMBA Gilles C 857 9:46:53 6:45:51
2506 5372 CUENIN Pascal C 858 9:46:56 7:03:03
2507 9199 FERNANDEZ Jean-Pierre D 513 9:46:57 6:55:48
2508 5775 SPRAY Jonathan C 859 9:46:58 6:26:40
2509 2624 RUDELLE Philippe D 514 9:47:05 6:59:04
2510 9755 THOMAS Thierry D 515 9:47:07 6:14:39
2511 2109 VIEILLOT Gerard E 157 9:47:08 7:21:57
2512 2900 LUC-PUPAT Hervé C 860 9:47:13 6:58:10
2513 4596 DAWKINS Steven C 861 9:47:16 6:16:58
2514 9375 BEGLEY Andrew B 645 9:47:18 6:19:33
2515 7636 WILDENBERG Tim C 862 9:47:20 6:52:19
2516 6912 NEWITT Joseph B 646 9:47:23 6:33:23
2517 8416 DOUCERAIN Thomas C 863 9:47:26 6:19:27
2518 9542 HELLWIG Ralph C 864 9:47:27 7:11:34
2519 5427 BOURGEOIS Gaetan A 272 9:47:32 6:43:27
2520 2913 HOFSTEDE Marten A 273 9:47:41 6:52:32
2521 9598 BARKER Stuart C 865 9:47:46 6:23:49
2522 9168 JONES Ryan B 647 9:47:52 7:02:26
2523 5279 RHODES Charles D 516 9:47:53 6:50:06
2524 3985 FASBINDER Fernand E 158 9:47:53 6:51:01
2525 8474 JACKSON Toby B 648 9:47:58 6:43:56
2526 3230 JEANNIN Thierry D 517 9:48:00 7:06:11
2527 7782 DOWNIE Keith B 649 9:48:04 6:36:52
2528 1555 FOUGERAY Philippe D 518 9:48:08 6:55:28
2529 2626 PREEST Mark C 866 9:48:12 7:08:43
2530 5027 RODRIGUES Simão B 650 9:48:18 6:47:32
2531 1358 SIONNET Christian E 159 9:48:21 7:06:37
2532 1470 DUPOUX David C 867 9:48:23 6:58:57
2533 6398 HENDRY John C 868 9:48:25 6:36:23
2534 2016 LAVILLE Dominique D 519 9:48:30 6:48:33
2535 8578 ENGLAND Chris B 651 9:48:32 6:49:36
2536 2865 MORDACQ Guillaume D 520 9:48:36 6:58:59
2537 5802 GERARDIN Denis D 521 9:48:37 6:47:59
2538 652 MUNCH Jean Luc D 522 9:48:40 6:55:15
2539 2718 BRAGUY Cyril C 869 9:48:44 6:31:04
2540 6958 TUDOR Byron B 652 9:48:48 6:42:56
2541 9026 LOUISET Pascal C 870 9:48:50 6:47:00
2542 8263 HEWETT Nigel D 523 9:48:50 6:50:09
2543 7869 APERTET Francois D 524 9:48:59 6:47:56
2544 4663 THOMAS Lloyd B 653 9:49:00 6:45:07
2545 3177 THOMAS Carolyn G 37 9:49:09 6:57:00
2546 6363 SANT’ANNA Rafael A 274 9:49:12 6:59:59
2547 7634 HOLMAN Huw A 275 9:49:14 6:23:38
2548 3359 MOINE Dominique E 160 9:49:22 7:05:29
2549 6681 OGDEN Jeremy D 525 9:49:24 6:38:14
2550 2554 BARRANGER Jean Pierre E 161 9:49:26 6:57:10
2551 7538 ALTMETS Raivo D 526 9:49:27 6:37:25
2552 7006 FERLAY Bernard D 527 9:49:28 6:41:58
2553 9388 RIGBY Phillip B 654 9:49:30 6:41:52
2554 8468 ARBEZ Yves D 528 9:49:30 6:54:44
2555 3470 MEAGHER Aidan B 655 9:49:35 6:25:10
2556 8242 BENTLEY Hayden C 871 9:49:35 6:58:07
2557 7795 VAN DER ELST Geert D 529 9:49:40 6:29:57
2558 9760 WESTON Sally G 38 9:49:45 6:33:02
2559 9759 CRONE Jonathan D 530 9:49:45 6:32:51
2560 806 PROSPER Alain D 531 9:49:45 6:32:00
2561 3378 GUILLOTIN Gilbert E 162 9:49:59 7:08:19
2562 5726 MERCIER Sébastien B 656 9:50:01 6:42:14
2563 9798 ALSTON Arthur C 872 9:50:03 6:42:54
2564 5402 DEVRED Nicolas A 276 9:50:06 6:48:41
2565 2530 VON SCHREIBER Simon C 873 9:50:09 6:48:47
2566 2140 CHAUZU Ludovic C 874 9:50:11 6:40:17
2567 6893 HUBERT Damien A 277 9:50:11 6:52:12
2568 4156 STAPLES Dan B 657 9:50:12 6:56:03
2569 3757 HARRIS Stephen D 532 9:50:14 6:53:43
2570 8147 LOWE Gary C 875 9:50:16 6:52:45
2571 5852 LOGEROT Vincent D 533 9:50:17 6:41:36
2572 8494 MEAD Steve B 658 9:50:17 6:55:33
2573 7171 MARKHAM James A 278 9:50:20 6:33:30
2574 5881 BROWN Barney C 876 9:50:25 6:39:08
2575 7530 MONTAGNON Christophe C 877 9:50:32 6:52:56
2576 6290 GELDARD Chris C 878 9:50:34 7:02:46
2577 1406 LORMIER Pascal D 534 9:50:35 7:04:22
2578 3352 CHATEAUREYNAUD Thierry C 879 9:50:39 6:27:25
2579 6004 TREMION Olivier B 659 9:50:41 6:27:39
2580 6352 DE BARRA Eoghan B 660 9:50:49 6:42:09
2581 4021 AUBANEL Laurent C 880 9:50:50 6:16:07
2582 6083 WOLF Olivier C 881 9:50:51 6:42:31
2583 2152 CARUSO Jean-Marc C 882 9:50:58 6:41:46
2584 3778 O’CONNOR Eddie D 535 9:51:04 6:42:18
2585 9081 TOURAILLE Alain E 163 9:51:07 7:06:25
2586 9746 MURRAY Charles B 661 9:51:08 6:33:53
2587 7856 NURSEY Simon B 662 9:51:17 6:38:23
2588 2894 HOYLE Matthew B 663 9:51:18 6:53:12
2589 866 LATOUR Didier C 883 9:51:21 7:13:49
2590 4113 DAVIES Gethin Lloyd E 164 9:51:25 6:56:35
2591 7680 EWING Andrew B 664 9:51:27 6:10:40
2592 8394 CALVY Andrew C 884 9:51:29 6:47:30
2593 5278 NISSEN Henrik C 885 9:51:30 6:53:27
2594 1915 BOURDONNAIS Guy E 165 9:51:34 7:03:51
2595 2868 CHARBON Franck C 886 9:51:35 6:55:17
2596 2541 ARMITAGE Rosie F 30 9:51:35 6:58:04
2597 7949 CHAPLIN Toby C 887 9:51:36 6:53:26
2598 2540 WARD Peter C 888 9:51:38 6:58:04
2599 2019 CARRIER Laurent C 889 9:51:42 6:45:17
2600 9622 HALKES Gertjan B 665 9:51:49 6:32:27
2601 4574 MARSHALL Charles Eric C 890 9:51:53 7:02:04
2602 6429 COSTA Michel C 891 9:52:00 6:50:13
2603 8931 ROBINSON Paul C 892 9:52:07 6:50:27
2604 7198 CHASSAGNON Jean-Marc C 893 9:52:13 6:49:15
2605 8798 MEYFROIDT Johan C 894 9:52:14 6:41:58
2606 3275 HIMMELBERG Ute G 39 9:52:17 6:49:05
2607 9846 ESSES Mario C 895 9:52:32 6:57:08
2608 5911 BUCKETT Jim B 666 9:52:39 6:35:53
2609 5227 PALAO Chriistian C 896 9:52:42 6:49:07
2610 7249 JIRSA Tomáa- A 279 9:52:47 7:01:28
2611 4477 BERNARD Philippe C 897 9:52:48 7:02:30
2612 2611 NILSSON Axel D 536 9:52:49 6:23:57
2613 8486 DEGRYSE Philiep C 898 9:52:50 6:51:33
2614 3588 KORENFELD Christian D 537 9:52:52 7:23:37
2615 7838 KNOWLES Terry B 667 9:52:56 6:47:33
2616 7909 CRICHTON David B 668 9:52:58 6:37:46
2617 9029 TANTON Mark D 538 9:52:59 6:50:21
2618 1560 MEUNIER Christophe B 669 9:53:05 7:14:03
2619 5416 LOBB Campbell D 539 9:53:10 6:59:18
2620 8946 ABBOT Mathieu B 670 9:53:11 6:48:32
2621 2568 LAINE Patrick C 899 9:53:17 7:12:19
2622 7102 THOMAS Simon B 671 9:53:25 6:46:47
2623 2881 DIZY Dominique C 900 9:53:25 6:57:40
2624 9717 OLIVEIRA Leonardo B 672 9:53:26 6:55:36
2625 187 DELACROIX Christian E 166 9:53:26 6:58:23
2626 709 MALTAVERNE Philippe D 540 9:53:27 7:02:57
2627 1400 WALLIS Tom C 901 9:53:29 6:39:17
2628 4057 KALDOR Jonny C 902 9:53:32 6:39:15
2629 2572 NOEZ Emmanuel C 903 9:53:33 6:22:02
2630 6389 JONES Thomas B 673 9:53:37 6:47:34
2631 6539 REGNIER Alain E 167 9:53:40 6:48:36
2632 3526 WOULFE Austin D 541 9:53:42 7:07:09
2633 4423 DONNET Jérémie C 904 9:53:45 6:32:30
2634 7688 THOMAS Matthew B 674 9:53:45 6:07:03
2635 8160 SMITH Gareth B 675 9:53:54 7:08:14
2636 5974 JEFFERIES Gareth C 905 9:53:55 6:56:15
2637 7207 GARFORTH-BLES George B 676 9:53:57 6:21:12
2638 7547 ROSSI Italo B 677 9:53:58
2639 3472 MAURY Alain D 542 9:53:58 7:07:32
2640 82 WALKER Laura G 40 9:53:59 6:24:44
2641 80 MASEK John D 543 9:54:00 6:20:45
2642 5462 MEYER Fabien B 678 9:54:04 6:18:25
2643 3155 BAYER Benoit B 679 9:54:05 6:34:37
2644 3517 LE TOUZÉ Eric C 906 9:54:11 6:40:51
2645 9830 MOUCHIROUD Eric C 907 9:54:12 7:16:49
2646 8780 BAILEY-HOUSE James B 680 9:54:13 6:28:56
2647 171 SANTOS Danielle G 41 9:54:18 6:54:01
2648 5150 DONY Claude D 544 9:54:18 6:54:03
2649 8791 BENNETT Andrew C 908 9:54:25 6:55:34
2650 3142 WASS Niall C 909 9:54:26 7:01:23
2651 6003 COOK Rhiannon F 31 9:54:34 6:42:37
2652 1319 SENECHAL David C 910 9:54:35 7:13:24
2653 938 MOLLOY Kevin C 911 9:54:35 6:25:34
2654 6063 BINNING Andrea G 42 9:54:36 6:51:10
2655 946 DAVOINE Michel D 545 9:54:38 6:51:26
2656 5765 BRET Jean-Louis D 546 9:54:39 6:56:57
2657 952 THEVENOUD Jean Noel C 912 9:54:40 6:59:35
2658 3307 POPP William C 913 9:54:50 6:45:19
2659 2218 MOREL Dominique C 914 9:54:53 7:02:09
2660 2602 WHITE Cameron C 915 9:54:56 6:23:06
2661 6478 ANDREW Mcguigan C 916 9:55:08 6:59:43
2662 9657 WHITAKER Andrew D 547 9:55:11 6:48:27
2663 5849 BATTU Jean-Philippe C 917 9:55:12 6:33:18
2664 7899 ANTONIOTTI Patrick C 918 9:55:13 6:37:15
2665 8949 CHERIE Vincent A 280 9:55:14 6:55:54
2666 2565 PAGNON Lionel C 919 9:55:14 6:55:06
2667 2046 BOURLET Pierre C 920 9:55:15 7:12:10
2668 9640 JOHNSON Myles B 681 9:55:16 6:55:59
2669 5335 HANLEY David C 921 9:55:17 6:59:49
2670 2614 ROUCHON Romain A 281 9:55:17 6:37:01
2671 7206 CRIBB Tom A 282 9:55:20 6:31:55
2672 3786 BOTTON Franck C 922 9:55:26 7:02:10
2673 2344 VILIBOR Fernando B 682 9:55:30 6:45:57
2674 3278 DEBLADIS Florine F 32 9:55:39 6:52:09
2675 8503 VAN HOOMISSEN Filip B 683 9:55:40 6:56:05
2676 4474 COIFFE Eric B 684 9:55:43 6:53:43
2677 9663 ROBSON Erik C 923 9:55:43 6:44:22
2678 3346 JEANÇON Rodolphe C 924 9:55:44 6:57:22
2679 8760 BAUP Yann A 283 9:55:45 6:36:03
2680 3345 LAURENT Frederic C 925 9:55:46 6:59:24
2681 8563 THEVENART Jean-Francois E 168 9:55:47 6:53:52
2682 7218 DARMON Armelle G 43 9:55:48 7:03:18
2683 5953 MOSELEY James C 926 9:55:49 6:59:38
2684 8149 AGNELLET Thibault E 169 9:55:52 6:52:53
2685 7626 PHILLIPS Thomas B 685 9:55:56 6:55:16
2686 4798 BEAN James B 686 9:55:57 7:04:08
2687 9436 SORIO Francesc C 927 9:55:59 6:10:29
2688 9376 REY Georges D 548 9:55:59 6:45:20
2689 7721 BRUCE Ellison C 928 9:56:00 6:00:54
2690 7252 REY Armand D 549 9:56:00 7:03:57
2691 7728 BOZZOLI Philippe C 929 9:56:00 6:46:27
2692 8781 MARTIN Andrew C 930 9:56:00 6:27:55
2693 4720 DIMITRIJEVIC Dragan B 687 9:56:01 6:52:37
2694 6680 SAUNDERS Robin D 550 9:56:05 7:01:15
2695 3383 FLECHET Regis C 931 9:56:05 7:02:03
2696 3872 ESPUNA Chantal G 44 9:56:09 7:09:25
2697 7125 PRADEL Sébastien B 688 9:56:12 6:59:32
2698 9008 MARKLAND Stanley D 551 9:56:16 7:04:47
2699 5233 HARRISON Simon D 552 9:56:21 7:04:28
2700 2985 JOLY Francois B 689 9:56:22 7:11:44
2701 5407 TRUDINGER Julian D 553 9:56:29 6:54:47
2702 3514 GASSMANN Emile B 690 9:56:33 6:35:53
2703 4563 RICHARDS Clive C 932 9:56:35 6:39:32
2704 7875 PONTE Emmanuel C 933 9:56:41 6:56:33
2705 8305 DAVERNES David B 691 9:56:44 6:49:34
2706 6697 BORGHETTI Franck C 934 9:56:45 7:00:50
2707 6654 TIREFORT Julien B 692 9:56:46 7:20:45
2708 1907 SERVAUX Rémy C 935 9:56:46 7:15:32
2709 9498 GILES Michael C 936 9:56:46 6:54:20
2710 9043 FRISWELL Ian D 554 9:56:49 6:17:19
2711 2821 DUFFAU Philippe D 555 9:56:53 6:48:08
2712 7722 WALTON Christopher C 937 9:56:59 6:54:23
2713 5218 MOURAUD Alain E 170 9:56:59 7:01:30
2714 886 BJORNSSON Bjorn Agust B 693 9:57:00 7:04:02
2715 3314 STANIC Alexander C 938 9:57:09 6:52:49
2716 4647 BERTRAND François C 939 9:57:10 7:02:53
2717 5338 DOLPHIN Augustin D 556 9:57:10 7:17:47
2718 8313 PIERRET Christophe C 940 9:57:16 7:02:36
2719 3189 LOPEZ Ricardo C 941 9:57:19 7:01:33
2720 2343 RANIERI Cesar B 694 9:57:21 7:16:47
2721 8610 ROBINSON Nick C 942 9:57:22 6:18:59
2722 3934 POLLET Virginie F 33 9:57:28 7:27:11
2723 7116 CARREAUD Francis D 557 9:57:29 7:03:16
2724 8158 SALADIN Daniel D 558 9:57:31 6:26:33
2725 2040 LARCHER Christian D 559 9:57:31 7:05:44
2726 4087 GRANDON Geoffrey A 284 9:57:31 7:00:25
2727 8897 ASTORINO Philippe C 943 9:57:32 6:49:42
2728 3998 PEARSON Richard C 944 9:57:33 6:59:40
2729 3174 DUCLUZAUX Patrick C 945 9:57:41 6:43:55
2730 3936 ELLIS John C 946 9:57:41 7:21:17
2731 8572 MEYER Gilles C 947 9:57:42 6:43:15
2732 9219 DUBOIS Guillaume A 285 9:57:44 6:56:03
2733 5049 LALOR Shane C 948 9:57:45 6:38:19
2734 2211 PEROTTO Herve C 949 9:57:48 6:59:20
2735 8495 LANG David C 950 9:57:48 6:57:58
2736 8893 HUNNEYBALL Adam A 286 9:57:56 6:38:50
2737 2066 SIMON Mickael B 695 9:58:01 7:03:22
2738 2905 JEAN Christophe C 951 9:58:06 6:38:45
2739 1998 REID Alistair D 560 9:58:06 7:15:27
2740 2906 GAUBERT Pascal B 696 9:58:07 6:32:33
2741 3509 LOWN Rupert C 952 9:58:08 6:57:50
2742 4634 RIISMAA Joel B 697 9:58:09 7:24:37
2743 8200 BURDIN Anthony A 287 9:58:11 7:02:17
2744 1653 MALLET Nicolas C 953 9:58:12 7:10:28
2745 5039 ARKWRIGHT Simon B 698 9:58:22 7:06:49
2746 7961 LUCIA Philippe C 954 9:58:34 6:38:36
2747 2596 TIEPPO Clauber C 955 9:58:34 6:57:46
2748 6252 METTENDORFF Joé A 288 9:58:34 6:38:44
2749 7545 SKEGGS James A 289 9:58:40 6:41:57
2750 3865 BRANDON Andrew C 956 9:58:41 6:49:09
2751 6935 EVERARD Chris C 957 9:58:42 6:56:18
2752 3964 SWALES Alistair C 958 9:58:43 6:55:03
2753 7824 HALE Paul C 959 9:58:47 6:21:00
2754 5960 ALMOND Rob C 960 9:58:49 6:33:45
2755 1572 SINCLAIR Philip D 561 9:58:54 7:20:33
2756 3137 CLEMENT Jordan A 290 9:58:55 6:55:05
2757 7708 NORRIS Jon B 699 9:58:56 6:54:21
2758 928 DE FOURNOUX Luc D 562 9:58:58 6:45:09
2759 5184 MARIANO RODRIGUES COSTA FILHO Roberto A 291 9:58:59 6:55:25
2760 6674 CROZIER Gavin C 961 9:59:01 6:42:14
2761 1315 CHRISTIE George B 700 9:59:01 7:21:18
2762 3814 MERA Steve E 171 9:59:03 7:17:49
2763 2872 LAMIC Jacques C 962 9:59:03 6:47:18
2764 984 BARTHEZ Jean-François C 963 9:59:07 7:28:11
2765 3389 CROOK Ross C 964 9:59:10 7:19:46
2766 2232 REDONDY Fabrice C 965 9:59:15 6:42:37
2767 3385 VORA Herve C 966 9:59:15 7:16:43
2768 2203 HEBERT Xavier C 967 9:59:21 7:17:13
2769 8467 DAHM Carlo C 968 9:59:24 6:39:33
2770 1402 FOLEY James C 969 9:59:25 7:01:04
2771 6683 FLYNN Benedict C 970 9:59:26 6:51:39
2772 6030 MARLIN Nicholas C 971 9:59:30 6:48:38
2773 7603 LAWRENCE Jewkes A 292 9:59:35 6:32:14
2774 4386 TALBOT Mark C 972 9:59:44 6:34:45
2775 9204 RAMIREZ Carmen G 45 9:59:44 6:51:01
2776 2819 VILLAUME Franck C 973 9:59:47 6:54:30
2777 7971 LAWSON Adam C 974 9:59:47 6:43:52
2778 1613 RUSCASSIE Rene E 172 9:59:48 7:04:58
2779 1575 SHAW Tim D 563 9:59:50 6:54:53
2780 5065 GAMOT François D 564 9:59:53 6:58:02
2781 3329 BEAMAN Andrew C 975 9:59:58 7:00:35
2782 2663 SAUER Ulrich D 565 9:59:58 6:59:12
2783 8575 DRENNAN Frank C 976 10:00:01 6:45:46
2784 8862 KLEIDERER Karl C 977 10:00:01 6:46:36
2785 3527 BOUISSOU Patrick D 566 10:00:02 6:55:14
2786 8502 ARNAUD Benoit A 293 10:00:03 7:01:17
2787 8501 ARNAUD Emilien A 294 10:00:04 7:01:13
2788 8500 ARNAUD Nicolas B 701 10:00:05 7:01:06
2789 6070 QUANTIN Julien B 702 10:00:05 7:14:35
2790 4026 LAMARE Gerard E 173 10:00:07 7:06:26
2791 4210 NICK Baker C 978 10:00:15 6:40:05
2792 3969 TAFFOREAU Christophe C 979 10:00:17 7:10:29
2793 3154 BENOIT Anne F 34 10:00:20 6:50:25
2794 8540 BERTOLINI Christian E 174 10:00:21 6:52:15
2795 7891 KNAPPETT David C 980 10:00:22 6:38:56
2796 2645 PETREMENT Serge D 567 10:00:23 7:12:28
2797 9764 KAUNY Mathieu D 568 10:00:26 6:51:12
2798 7188 DUNN Philip C 981 10:00:30 6:54:03
2799 6986 SMITH Alex B 703 10:00:31 6:33:21
2800 3298 LARGERON David C 982 10:00:31 6:39:54
2801 9443 MALAVIALLE Andre C 983 10:00:42 6:44:14
2802 5870 DESENZANI Mathieu A 295 10:00:49 7:16:20
2803 2749 MATTE Julio Cezar C 984 10:00:50 6:43:58
2804 7672 BRAGG Peter B 704 10:00:58 6:52:49
2805 3806 MARCKWARDT Christian B 705 10:01:00 6:56:45
2806 6335 MAJERUS Paul-Marie D 569 10:01:01 6:45:49
2807 8596 CZENSZ Denis C 985 10:01:03 7:25:53
2808 7589 STAPLEHURST Roger C 986 10:01:04 7:05:43
2809 7576 WEBB Julian B 706 10:01:05 6:49:22
2810 8451 BULL Richard D 570 10:01:06 6:57:58
2811 3904 BONY Robert D 571 10:01:07 7:02:57
2812 8437 MOORE Steven C 987 10:01:07 6:56:05
2813 3356 FREITAS Luis Ricardo Napolitano C 988 10:01:10 6:55:18
2814 5471 PALTER Robert C 989 10:01:11 7:26:30
2815 7639 BAYER Sam A 296 10:01:14 6:51:47
2816 6677 KELLY Ian C 990 10:01:15 6:50:48
2817 7817 DESMIS Antoine C 991 10:01:17 6:33:58
2818 1036 DENIS Olivier C 992 10:01:18 7:11:47
2819 7038 LYONS Tom B 707 10:01:19 7:16:52
2820 7607 SAULQUIN Walter C 993 10:01:20 7:03:46
2821 5862 DELAUZUN Bruno C 994 10:01:21 5:58:33
2822 3939 ZAZA Eric D 572 10:01:22 7:20:07
2823 9131 STENNING Jonathan A 297 10:01:23 6:52:23
2824 7940 HEALEY Patrokolos C 995 10:01:29 6:58:11
2825 2038 PHALIPPOU Marc D 573 10:01:32 6:45:32
2826 9661 MADSEN Johannes B 708 10:01:35 6:51:54
2827 6646 ADAM Yannick B 709 10:01:46 7:07:15
2828 3159 ALAUZEN Michel D 574 10:01:47 7:09:33
2829 6631 WALLE Clément A 298 10:01:56 6:43:31
2830 8461 WEATHERHEAD Wayne C 996 10:02:03 6:47:42
2831 1699 VERMAAK Kevin C 997 10:02:11 7:06:03
2832 2937 BLONDIAUX Jerome C 998 10:02:13 6:57:33
2833 6486 DAUTREY Patrick D 575 10:02:15
2834 1594 LABROUSSE Joël E 175 10:02:17 7:12:11
2835 9676 BEHAN Robert C 999 10:02:19 6:58:33
2836 7555 KETTLE Simon C 1000 10:02:21 7:06:48
2837 4567 KATASONOV Oleksiy B 710 10:02:24 6:17:48
2838 1576 BOIDRON Jean-René C 1001 10:02:27 6:53:57
2839 682 VERGNIEUX Philippe C 1002 10:02:31 7:20:07
2840 9437 CAMPOS TAPIAS Ignasi Xavier A 299 10:02:32 6:52:30
2841 2818 ROPART Nicolas B 711 10:02:35 7:01:34
2842 6610 ROUSSEAU Stephane B 712 10:02:35 6:48:50
2843 2929 BOST Philippe D 576 10:02:40 7:05:18
2844 8932 MARTIN Daniel C 1003 10:02:45 7:07:16
2845 3875 COULTAN Mark D 577 10:02:46 6:58:43
2846 2772 PASQUIER Philippe D 578 10:02:53 6:59:17
2847 6574 ADLAM Michael B 713 10:02:53 6:50:34
2848 7816 GIBBS Andrew C 1004 10:02:53 6:25:45
2849 2316 GROS Kieran A 300 10:02:55 7:18:48
2850 8345 WALTON Stephen C 1005 10:02:56 6:35:39
2851 2183 DELCOURT Denys D 579 10:02:57 7:11:04
2852 6952 HINTON Tom B 714 10:03:01 6:03:33
2853 6954 HINTON Joshua A 301 10:03:01 6:03:36
2854 4704 FAURE Herve C 1006 10:03:13 7:09:16
2855 3132 MULOT Patrice D 580 10:03:17 6:41:55
2856 4098 DAL-MOLIN Gilles E 176 10:03:27
2857 3454 MYTOM Andrew C 1007 10:03:35 6:44:54
2858 4807 LEAVEY Sean C 1008 10:03:35 6:33:06
2859 5320 KELLY Joe D 581 10:03:35 6:27:34
2860 7257 THOMPSON David E 177 10:03:36 7:06:24
2861 9017 CUNLIFFE Adam C 1009 10:03:38 6:52:50
2862 3171 DAL-FARA Jean Pierre D 582 10:03:38 7:21:59
2863 8444 GUICHARD Jerome B 715 10:03:39 6:38:21
2864 4535 MCCARTHY Jon B 716 10:03:41 6:56:49
2865 3384 WIGNO Michel D 583 10:03:43 6:49:12
2866 7857 BROWN Alastair C 1010 10:03:44 6:38:18
2867 7647 WEALE Jonathan B 717 10:03:48 6:31:09
2868 409 YANO Daisuke C 1011 10:03:49 7:07:53
2869 4387 TURLEY Jim C 1012 10:03:50 6:39:56
2870 8230 PAINET Michel C 1013 10:03:52 7:14:03
2871 7031 KLEIN Patrick C 1014 10:03:56 7:13:28
2872 3382 JOSUE Franck C 1015 10:03:59 7:09:27
2873 9839 WILLIAMS Michael C 1016 10:03:59 6:57:05
2874 1966 BOURRET Christian C 1017 10:03:59 6:51:18
2875 9495 DE VRIES Miguel C 1018 10:04:01 7:12:55
2876 3318 ALESSIO Vincent B 718 10:04:07 7:07:14
2877 5127 GAMMAGE Adrian A 302 10:04:08 7:23:30
2878 7644 JEANNET Jean Pierre C 1019 10:04:12 7:01:22
2879 1621 PANNIER Jean_marc D 584 10:04:14 7:11:19
2880 1419 FRAIZY Pierre B 719 10:04:19 7:11:36
2881 5009 LAYZELL Keis B 720 10:04:22 6:38:38
2882 7015 ALLEN Nick B 721 10:04:24 6:47:20
2883 3210 JOSÉ DA SILVA Romes C 1020 10:04:24 6:58:36
2884 3794 CUTLER Matthew C 1021 10:04:27 6:57:10
2885 2606 MINISINI Joel C 1022 10:04:33 7:00:01
2886 5948 MACNAUGHTON Peter D 585 10:04:37 7:02:37
2887 3521 AUVOLAT Dominique D 586 10:04:39 7:09:23
2888 3343 CAMPENET Cyrille C 1023 10:04:39 7:08:10
2889 5137 HAIGH Taddeo A 303 10:04:44 6:26:22
2890 3516 VIRET Sébastien B 722 10:04:45 6:41:41
2891 9829 BERNTSEN David B 723 10:04:45 6:53:37
2892 9500 STIRNEMANN Christophe C 1024 10:04:48
2893 910 ROUILLER Marie-Claire D 587 10:04:48 7:01:10
2894 9634 GREGORY Jonathan C 1025 10:04:51 6:34:20
2895 5344 ORNADEL Dan C 1026 10:04:52 7:10:04
2896 3219 KINNALY Edward C 1027 10:04:54 6:34:39
2897 3432 GIMENO Stephane B 724 10:04:58 7:07:18
2898 1900 GALLERINI Richard D 588 10:05:01 7:15:14
2899 3890 HOERNER Jean-Claude E 178 10:05:01 7:06:18
2900 4085 LEGAGNEUR Gabriel A 304 10:05:07 7:06:06
2901 9593 STEWART Barry C 1028 10:05:09 6:32:26
2902 2608 MOLINS Toby C 1029 10:05:09 7:01:13
2903 761 MOREAU Franck C 1030 10:05:09 7:09:39
2904 4068 PENGELLY Nigel C 1031 10:05:22 7:06:08
2905 4799 BAIGEL Gary C 1032 10:05:24 6:55:15
2906 7288 ROHART Marcel E 179 10:05:24 6:44:39
2907 4519 DIEN Frédéric C 1033 10:05:24 6:49:49
2908 8459 FAJARDIE Thieryy C 1034 10:05:26 7:10:56
2909 9407 WONG Jeffrey C 1035 10:05:35 6:12:29
2910 3534 DESTRUEL Marc D 589 10:05:40 7:12:42
2911 4611 STUART JUNIOR Reinaldo D 590 10:05:48 6:57:00
2912 3130 DUPONT Dominique D 591 10:05:54 7:22:57
2913 9685 DOHERTY Ciaran A 305 10:05:57 6:42:52
2914 3535 ANDRIEUX Philippe D 592 10:05:58 7:23:15
2915 8756 BOURDIN David C 1036 10:06:00 6:51:10
2916 3175 DEBEAUMONT Michel E 180 10:06:01 6:48:49
2917 6365 LACHERY David C 1037 10:06:07 7:03:22
2918 8525 BONNETAIN Arnaud C 1038 10:06:07 6:57:19
2919 1886 LISA Jean-Pierre C 1039 10:06:11 7:11:55
2920 1908 CLEMENT Danick C 1040 10:06:16 6:34:11
2921 3955 OCONNOR Pat C 1041 10:06:16 7:05:43
2922 3373 BEYLIER Benoit C 1042 10:06:17 7:12:30
2923 7913 VONLEWINSKI Hans D 593 10:06:19 7:01:13
2924 1336 BEIS Jean-Noël E 181 10:06:21 7:13:22
2925 8524 BEZES Alain D 594 10:06:23 7:01:46
2926 7630 LLANES François D 595 10:06:29 7:15:07
2927 6624 COTTON William E 182 10:06:30 6:41:57
2928 2603 CHAMBEAUDIE Pierre C 1043 10:06:30 6:59:56
2929 7058 GHESQUIERE Jean-Rene D 596 10:06:34 7:03:55
2930 7929 VIALLE Pierre B 725 10:06:35 6:45:30
2931 9499 HARPER Michael D 597 10:06:37 6:51:11
2932 4703 KEARNEY Brendan C 1044 10:06:45 7:10:07
2933 9115 JACQUEMET Dominique D 598 10:06:48 7:10:40
2934 5012 WEBBER Jason C 1045 10:06:55 7:01:06
2935 9607 BOURBONNAIS Frederic B 726 10:06:59 6:58:32
2936 2129 BARRE Dominique D 599 10:07:02 7:20:39
2937 926 DOMIN Daniel E 183 10:07:04 7:20:27
2938 3532 CARNIEL Serge D 600 10:07:08 6:56:06
2939 3168 BREUER Gilles C 1046 10:07:10 7:12:51
2940 422 BERTHELIER Patricia G 46 10:07:11 7:18:36
2941 8443 GAGNEPAIN Alexandre B 727 10:07:11 6:41:53
2942 5288 TOTZKE Uwe C 1047 10:07:16 7:13:59
2943 3217 BERNARD Franck C 1048 10:07:18 7:01:13
2944 3377 ELARY Samuel C 1049 10:07:19 7:23:21
2945 5479 GNANN Robert C 1050 10:07:20
2946 7633 POIRIER Christophe D 601 10:07:21 7:03:11
2947 4016 NOUWENS Kaspar C 1051 10:07:21 6:51:45
2948 7648 KYLE Hilton B 728 10:07:22 6:21:09
2949 7561 FEATHERSTONE Christoper B 729 10:07:22 6:21:11
2950 5650 GUEST Paul C 1052 10:07:23 7:15:10
2951 8148 DELBECQUE Remy A 306 10:07:27 7:12:04
2952 7061 SOLETY Bertrand C 1053 10:07:29 6:32:54
2953 9039 KIENAST Kai C 1054 10:07:32 6:48:05
2954 413 FOLLOT Helene G 47 10:07:33
2955 3392 LEGENDRE Daniel E 184 10:07:38 7:10:38
2956 1493 BARRÉ Jean-Yves D 602 10:07:44 7:19:21
2957 7872 WARREN Richard D 603 10:07:50 7:05:33
2958 7016 GRAY Nick C 1055 10:07:53 6:12:45
2959 6938 GRAY Simon B 730 10:07:54 6:15:45
2960 932 ENSE Harkus C 1056 10:07:55 7:19:04
2961 4832 BRIDTS Caro G 48 10:08:01
2962 5147 LONCKE Nina G 49 10:08:01
2963 3909 LAFONTAINE Alain E 185 10:08:03 7:05:39
2964 3578 CLEEVELY Stuart B 731 10:08:05 6:41:18
2965 2674  ?  ? B 732 10:08:17 5:59:02
2966 34 BENEZECH Laurent C 1057 10:08:20 6:43:57
2967 9651 CHEVALLIER Patrick C 1058 10:08:30 6:56:04
2968 6627 MACHADO COSTA Luiz Eduardo C 1059 10:08:30 7:17:38
2969 2914 CHAPMAN Martin C 1060 10:08:35 7:22:20
2970 3126 MOSSON Geoffroy B 733 10:08:40 6:49:35
2971 9580 SOUZA Helio B 734 10:08:40 7:16:58
2972 3418 DALLE Benoît B 735 10:08:41 6:32:02
2973 2535 CONCAUD Gerard E 186 10:08:41 7:01:38
2974 4709 SIMON Holden D 604 10:08:42 6:55:35
2975 3931 TAIBI Lady C 1061 10:08:42 7:14:04
2976 4109 BUCARI Mireille G 50 10:08:48 7:08:20
2977 4034 UYTDEWILLIGEN Dirk D 605 10:08:48 7:05:19
2978 432 DEVAUX Michel C 1062 10:08:53 6:40:50
2979 9619 SHAW Antony C 1063 10:08:53 7:08:22
2980 5674 SAUTTER Ben C 1064 10:08:53 6:29:56
2981 6391 BASSANI Armando C 1065 10:08:57 6:57:26
2982 9475 FERRONATO Pascal B 736 10:08:57 7:08:11
2983 6660 STEELE Matthew B 737 10:09:01
2984 5460 MASSARE DRACON Edouard C 1066 10:09:01 6:54:09
2985 2921 ESPUNA Claude E 187 10:09:09 7:25:54
2986 8940 RUSSELL JONES David C 1067 10:09:15 7:07:37
2987 7330 KROON Jorma B 738 10:09:15 7:35:03
2988 7517 BROWN Scott C 1068 10:09:26 7:20:44
2989 7197 BOREK Daniel B 739 10:09:35 6:58:36
2990 7138 BROSNAN Paul C 1069 10:09:37 6:26:44
2991 9457 CURTIN John B 740 10:09:43 6:55:13
2992 2982 AULD Stephen C 1070 10:09:45 7:07:44
2993 7215 DEDEYNE Serge B 741 10:09:45 7:18:33
2994 6024 LACHLAN Thomas B 742 10:09:46 6:48:59
2995 5336 TANGUY Patrice D 606 10:09:51 7:12:29
2996 3503 LAZORKO Eric C 1071 10:09:57 6:53:33
2997 2604 HOSTERT Laurent B 743 10:09:58 7:17:51
2998 1359 SEVESTRE Dominique C 1072 10:09:58 7:07:41
2999 9841 VERMOT Olivier C 1073 10:10:06 7:25:18
3000 3963 DELÈGUE Laurent C 1074 10:10:07 7:01:42

Voir suite -> Etape du Tour 1 - 2012 : du 3001ème au 4000ème

إلى الأعلى 









إلى الأعلى  
 المجال الخاص   حقوق التألالنشر - جميع الحقوق محفوظة: اضغط هنا قراءة